Weather History for Moorhead, MN

Change the Weather History Date:

Saturday, March 1, 2014

  Actual Average (KFAR) Record (KFAR)
Temperature  
Mean Temperature -12 °F 20 °F  
Max Temperature -7 °F 29 °F 58 °F (1990)
Min Temperature -16 °F 12 °F -23 °F (1962)
Degree Days  
Heating Degree Days 76 45  
Month to date heating degree days 45  
Since 1 July heating degree days 6723  
Cooling Degree Days 0 0  
Month to date cooling degree days 0  
Year to date cooling degree days 0  
Moisture  
Dew Point -21 °F    
Average Humidity 69    
Maximum Humidity 77    
Minimum Humidity 59    
Precipitation  
Precipitation 0.00 in 0.04 in 0.45 in (2007)
Month to date precipitation 0.04  
Year to date precipitation 1.35  
Snow  
Snow 0.00 in 0.40 in 6.50 in (2007)
Month to date snowfall 0.4  
Since 1 July snowfall 38.4  
Snow Depth -    
Sea Level Pressure  
Sea Level Pressure 30.52 in    
Wind  
Wind Speed 11 mph (NNW)    
Max Wind Speed 16 mph    
Max Gust Speed -    
Visibility 9 miles    
Events      
T = Trace of Precipitation, MM = Missing Value Source: NWS Daily Summary

Daily Weather History Graph

Daily Weather History Graph

Search for Another Location

Airport:

Trip Planner

Search our weather history database for the weather conditions in past years. The results will help you decide how hot, cold, wet, or windy it might be!

Date:

Astronomy

Mar. 01, 2014 Rise Set
Actual Time 7:06 AM CST 6:12 PM CST
Civil Twilight 6:35 AM CST 6:42 PM CST
Nautical Twilight 6:00 AM CST 7:18 PM CST
Astronomical Twilight 5:25 AM CST 7:53 PM CST
Moon 6:57 AM CST (3/1) 7:06 PM CST (3/1)
Length of Visible Light 12h 07m
Length of Day
11h 06m
New Moon, 0% of the Moon is Illuminated
Mar 1
New Moon
Mar 8
First Quarter
Mar 16
Full
Mar 23
Last Quarter
Mar 30
New

Hourly Weather History & Observations

Time (CST) Temp. Windchill Dew Point Humidity Pressure Visibility Wind Dir Wind Speed Gust Speed Precip Events Conditions
12:15 AM -7.6 °F -29.8 °F -14.8 °F 71% 30.35 in 10.0 mi North 16.1 mph - N/A   Clear
12:35 AM -9.4 °F -29.8 °F -14.8 °F 77% 30.36 in 10.0 mi North 12.7 mph - N/A   Clear
12:54 AM -9.4 °F -30.6 °F -16.6 °F 71% 30.37 in 10.0 mi NNW 13.8 mph - N/A   Clear
1:15 AM -9.4 °F -31.4 °F -16.6 °F 71% 30.38 in 10.0 mi North 15.0 mph - N/A   Clear
1:35 AM -9.4 °F -27.9 °F -16.6 °F 71% 30.39 in 10.0 mi North 10.4 mph - N/A   Clear
1:54 AM -9.4 °F -28.9 °F -16.6 °F 71% 30.39 in 10.0 mi NNW 11.5 mph - N/A   Clear
2:15 AM -11.2 °F -30.1 °F -18.4 °F 70% 30.40 in 10.0 mi NNW 10.4 mph - N/A   Clear
2:35 AM -11.2 °F -27.8 °F -18.4 °F 70% 30.41 in 10.0 mi NNW 8.1 mph - N/A   Clear
2:54 AM -11.2 °F -30.1 °F -18.4 °F 70% 30.41 in 10.0 mi NNW 10.4 mph - N/A   Clear
3:15 AM -13.0 °F -31.3 °F -18.4 °F 77% 30.41 in 10.0 mi North 9.2 mph - N/A   Clear
3:35 AM -13.0 °F -32.4 °F -18.4 °F 77% 30.41 in 10.0 mi North 10.4 mph - N/A   Clear
3:55 AM -13.0 °F -30.0 °F -18.4 °F 77% 30.41 in 10.0 mi North 8.1 mph - N/A   Clear
4:15 AM -13.0 °F -33.4 °F -18.4 °F 77% 30.44 in 10.0 mi NNW 11.5 mph - N/A   Clear
4:34 AM -14.8 °F -37.5 °F -20.2 °F 77% 30.44 in 10.0 mi North 13.8 mph - N/A   Clear
4:55 AM -14.8 °F -36.6 °F -20.2 °F 77% 30.44 in 10.0 mi North 12.7 mph - N/A   Clear
5:15 AM -14.8 °F -33.5 °F -20.2 °F 77% 30.45 in 10.0 mi NNW 9.2 mph - N/A   Clear
5:34 AM -14.8 °F -34.6 °F -22.0 °F 70% 30.44 in 10.0 mi NNW 10.4 mph - N/A   Clear
5:55 AM -14.8 °F -34.6 °F -22.0 °F 70% 30.45 in 10.0 mi NNW 10.4 mph - N/A   Clear
6:15 AM -16.6 °F -35.7 °F -23.8 °F 70% 30.45 in 10.0 mi NNW 9.2 mph - N/A   Clear
6:34 AM -16.6 °F -31.3 °F -23.8 °F 70% 30.47 in 10.0 mi NNW 5.8 mph - N/A   Clear
6:55 AM -16.6 °F -32.9 °F -23.8 °F 70% 30.48 in 10.0 mi NNW 6.9 mph - N/A   Clear
7:15 AM -16.6 °F -32.9 °F -23.8 °F 70% 30.49 in 10.0 mi NNW 6.9 mph - N/A   Clear
7:34 AM -16.6 °F -32.9 °F -23.8 °F 70% 30.50 in 10.0 mi NNW 6.9 mph - N/A   Clear
7:55 AM -14.8 °F -33.5 °F -23.8 °F 64% 30.50 in 10.0 mi NNW 9.2 mph - N/A   Clear
8:14 AM -14.8 °F -32.2 °F -23.8 °F 64% 30.51 in 10.0 mi NNW 8.1 mph - N/A   Clear
8:35 AM -14.8 °F -36.6 °F -23.8 °F 64% 30.53 in 10.0 mi NNW 12.7 mph - N/A   Clear
8:55 AM -14.8 °F -36.6 °F -23.8 °F 64% 30.53 in 10.0 mi NNW 12.7 mph - N/A   Clear
9:14 AM -14.8 °F -37.5 °F -23.8 °F 64% 30.54 in 10.0 mi North 13.8 mph - N/A   Clear
9:35 AM -14.8 °F -34.6 °F -23.8 °F 64% 30.55 in 10.0 mi North 10.4 mph - N/A   Clear
9:55 AM -14.8 °F -32.2 °F -23.8 °F 64% 30.56 in 10.0 mi North 8.1 mph - N/A   Clear
10:14 AM -13.0 °F -31.3 °F -22.0 °F 64% 30.55 in 10.0 mi North 9.2 mph - N/A   Clear
10:35 AM -13.0 °F -33.4 °F -20.2 °F 70% 30.57 in 10.0 mi North 11.5 mph - N/A   Clear
10:54 AM -13.0 °F -33.4 °F -20.2 °F 70% 30.56 in 10.0 mi North 11.5 mph - N/A   Clear
11:15 AM -13.0 °F -31.3 °F -20.2 °F 70% 30.57 in 10.0 mi North 9.2 mph - N/A   Clear
11:35 AM -11.2 °F -30.1 °F -20.2 °F 64% 30.57 in 10.0 mi NNW 10.4 mph - N/A   Clear
11:54 AM -11.2 °F -30.1 °F -20.2 °F 64% 30.58 in 10.0 mi NNW 10.4 mph - N/A   Clear
12:15 PM -11.2 °F -30.1 °F -20.2 °F 64% 30.58 in 10.0 mi North 10.4 mph - N/A   Clear
12:35 PM -11.2 °F -29.0 °F -18.4 °F 70% 30.60 in 7.0 mi NNW 9.2 mph - N/A   Clear
12:55 PM -11.2 °F -31.1 °F -18.4 °F 70% 30.59 in 7.0 mi North 11.5 mph - N/A   Scattered Clouds
1:15 PM -11.2 °F -30.1 °F -18.4 °F 70% 30.57 in 5.0 mi North 10.4 mph - N/A   Haze
1:35 PM -11.2 °F -30.1 °F -18.4 °F 70% 30.58 in 5.0 mi North 10.4 mph - N/A   Haze
1:55 PM -11.2 °F -29.0 °F -18.4 °F 70% 30.58 in 10.0 mi North 9.2 mph - N/A   Scattered Clouds
2:15 PM -11.2 °F -32.1 °F -18.4 °F 70% 30.56 in 10.0 mi North 12.7 mph - N/A   Clear
2:35 PM -11.2 °F -31.1 °F -16.6 °F 77% 30.55 in 4.0 mi North 11.5 mph - N/A   Haze
2:55 PM -11.2 °F -31.1 °F -18.4 °F 70% 30.56 in 4.0 mi North 11.5 mph - N/A   Haze
3:14 PM -11.2 °F -31.1 °F -18.4 °F 70% 30.56 in 4.0 mi North 11.5 mph - N/A   Haze
3:35 PM -11.2 °F -30.1 °F -18.4 °F 70% 30.56 in 7.0 mi North 10.4 mph - N/A   Mostly Cloudy
3:55 PM -11.2 °F -29.0 °F -18.4 °F 70% 30.57 in 4.0 mi North 9.2 mph - N/A   Haze
4:14 PM -11.2 °F -29.0 °F -20.2 °F 64% 30.58 in 10.0 mi NNW 9.2 mph - N/A   Scattered Clouds
4:35 PM -11.2 °F -29.0 °F -20.2 °F 64% 30.58 in 10.0 mi North 9.2 mph - N/A   Clear
4:55 PM -11.2 °F -29.0 °F -20.2 °F 64% 30.57 in 10.0 mi North 9.2 mph - N/A   Clear
5:14 PM -11.2 °F -26.4 °F -18.4 °F 70% 30.57 in 7.0 mi North 6.9 mph - N/A   Scattered Clouds
5:35 PM -11.2 °F -24.8 °F -20.2 °F 64% 30.57 in 10.0 mi North 5.8 mph - N/A   Scattered Clouds
5:55 PM -13.0 °F -25.1 °F -20.2 °F 70% 30.58 in 10.0 mi North 4.6 mph - N/A   Clear
6:14 PM -13.0 °F -25.1 °F -20.2 °F 70% 30.58 in 10.0 mi North 4.6 mph - N/A   Clear
6:35 PM -13.0 °F -27.0 °F -20.2 °F 70% 30.58 in 10.0 mi North 5.8 mph - N/A   Clear
6:54 PM -14.8 °F -27.2 °F -20.2 °F 77% 30.58 in 10.0 mi North 4.6 mph - N/A   Clear
7:15 PM -14.8 °F - -20.2 °F 77% 30.59 in 10.0 mi Calm Calm - N/A   Clear
7:35 PM -14.8 °F -24.8 °F -20.2 °F 77% 30.58 in 10.0 mi NNW 3.5 mph - N/A   Clear
7:54 PM -14.8 °F -27.2 °F -20.2 °F 77% 30.58 in 10.0 mi NW 4.6 mph - N/A   Clear
8:15 PM -14.8 °F -27.2 °F -20.2 °F 77% 30.57 in 10.0 mi NW 4.6 mph - N/A   Clear
8:35 PM -14.8 °F -32.2 °F -22.0 °F 70% 30.57 in 10.0 mi NW 8.1 mph - N/A   Clear
8:54 PM -14.8 °F -34.6 °F -23.8 °F 64% 30.58 in 10.0 mi NW 10.4 mph - N/A   Clear
9:15 PM -14.8 °F -32.2 °F -23.8 °F 64% 30.57 in 10.0 mi NW 8.1 mph - N/A   Clear
9:35 PM -14.8 °F -29.1 °F -23.8 °F 64% 30.57 in 10.0 mi NNW 5.8 mph - N/A   Clear
9:54 PM -14.8 °F -30.8 °F -23.8 °F 64% 30.58 in 10.0 mi NW 6.9 mph - N/A   Clear
10:15 PM -14.8 °F -30.8 °F -23.8 °F 64% 30.57 in 10.0 mi NW 6.9 mph - N/A   Clear
10:35 PM -13.0 °F -28.6 °F -23.8 °F 59% 30.57 in 10.0 mi NW 6.9 mph - N/A   Clear
10:54 PM -13.0 °F -34.3 °F -23.8 °F 59% 30.57 in 10.0 mi NW 12.7 mph - N/A   Clear
11:15 PM -13.0 °F -31.3 °F -23.8 °F 59% 30.57 in 10.0 mi NW 9.2 mph - N/A   Clear
11:35 PM -13.0 °F -30.0 °F -23.8 °F 59% 30.56 in 10.0 mi NW 8.1 mph - N/A   Clear
11:55 PM -13.0 °F -30.0 °F -23.8 °F 59% 30.56 in 10.0 mi WNW 8.1 mph - N/A   Clear